Location: Hylvaty SDH
(49.9612°N, 16.4057°E)
Time: 00:47:30
(UTC+01:00)

Transit 2A - All Passes

Search period start: 26 January 2020 00:00
Search period end: 05 February 2020 00:00
Orbit: 601 x 958 km, 66.7° (Epoch: 25 January)

Date Brightness Start Highest point End Pass type
(mag) Time Alt. Az. Time Alt. Az. Time Alt. Az.
26 Jan - 01:52:11 10° NNW 01:55:07 16° NNE 01:58:12 10° ENE night (unlit)
26 Jan - 03:34:34 10° NNW 03:39:11 59° NE 03:44:14 10° SE visible
26 Jan - 05:18:10 10° WNW 05:22:04 25° WSW 05:26:15 10° SSW visible
26 Jan - 18:21:57 10° SE 18:24:05 13° ESE 18:26:12 10° ENE visible
26 Jan - 20:02:10 10° SW 20:06:33 84° NW 20:10:56 10° NE visible
26 Jan - 21:47:16 10° WNW 21:50:22 19° NNW 21:53:32 10° NNE night (unlit)
27 Jan - 01:18:15 10° N 01:20:40 14° NNE 01:23:10 10° NE night (unlit)
27 Jan - 03:00:31 10° NNW 03:04:58 43° NE 03:09:49 10° ESE visible
27 Jan - 04:43:44 10° NW 04:48:04 35° WSW 04:52:46 10° S visible
27 Jan - 19:28:06 10° SSW 19:32:27 68° ESE 19:36:47 10° NE visible
27 Jan - 21:12:29 10° W 21:16:00 23° NW 21:19:34 10° NNE visible
27 Jan - 23:00:33 10° NNW 23:00:51 10° N 23:01:10 10° N night (unlit)
28 Jan - 00:44:21 10° N 00:46:11 12° NNE 00:48:02 10° NE night (unlit)
28 Jan - 02:26:30 10° NNW 02:30:43 33° NE 02:35:16 10° ESE night (unlit)
28 Jan - 04:09:26 10° NW 04:14:01 49° WSW 04:19:03 10° SSE visible
28 Jan - 18:54:12 10° SSW 18:58:22 45° ESE 19:02:33 10° NE visible
28 Jan - 20:37:50 10° WSW 20:41:40 30° NW 20:45:35 10° NNE visible
28 Jan - 22:24:59 10° NNW 22:26:19 11° NNW 22:27:39 10° N night (unlit)
29 Jan - 00:10:32 10° N 00:11:39 11° NNE 00:12:47 10° NNE night (unlit)
29 Jan - 01:52:30 10° NNW 01:56:25 26° NE 02:00:36 10° E night (unlit)
29 Jan - 03:35:13 10° NW 03:39:57 70° WSW 03:45:08 10° SSE visible
29 Jan - 05:20:51 10° W 05:22:23 11° WSW 05:23:57 10° SW visible
29 Jan - 18:20:31 10° S 18:24:22 31° ESE 18:28:13 10° NE visible
29 Jan - 20:03:18 10° WSW 20:07:23 39° NW 20:11:33 10° NNE visible
29 Jan - 21:49:49 10° NW 21:51:48 13° NNW 21:53:49 10° N night (unlit)
30 Jan - 01:18:31 10° NNW 01:22:03 21° NNE 01:25:48 10° E night (unlit)
30 Jan - 03:01:04 10° NW 03:05:49 86° NE 03:11:02 10° SE night (unlit)
30 Jan - 04:45:24 10° WNW 04:48:28 17° WSW 04:51:43 10° SSW night (unlit)
30 Jan - 17:47:05 10° SSE 17:50:24 21° ESE 17:53:42 10° ENE visible
30 Jan - 19:28:54 10° SW 19:33:10 54° NW 19:37:29 10° NNE visible
30 Jan - 21:14:47 10° WNW 21:17:20 15° NNW 21:19:55 10° N visible
31 Jan - 00:44:33 10° NNW 00:47:40 17° NNE 00:50:55 10° ENE night (unlit)
31 Jan - 02:26:58 10° NNW 02:31:40 63° NE 02:36:48 10° SE night (unlit)
31 Jan - 04:10:41 10° WNW 04:14:31 24° WSW 04:18:39 10° SSW night (unlit)
31 Jan - 17:14:05 10° SE 17:16:29 15° ESE 17:18:52 10° ENE visible
31 Jan - 18:54:38 10° SW 18:58:59 78° NW 19:03:24 10° NE visible
31 Jan - 20:39:52 10° WNW 20:42:53 18° NNW 20:45:58 10° NNE visible
01 Feb - 00:10:36 10° N 00:13:13 15° NNE 00:15:54 10° ENE night (unlit)
01 Feb - 01:52:55 10° NNW 01:57:28 46° NE 02:02:25 10° ESE night (unlit)
01 Feb - 03:36:13 10° NW 03:40:32 33° WSW 03:45:13 10° S night (unlit)
01 Feb - 18:20:32 10° SSW 18:24:52 73° SE 18:29:15 10° NE visible
01 Feb - 20:05:04 10° W 20:08:30 22° NW 20:12:00 10° NNE visible
01 Feb - 21:53:10 10° N 21:53:24 10° N 21:53:39 10° N visible
01 Feb - 23:36:41 10° N 23:38:43 13° NNE 23:40:50 10° NE night (unlit)
02 Feb - 01:18:53 10° NNW 01:23:13 35° NE 01:27:54 10° ESE night (unlit)
02 Feb - 03:01:53 10° NW 03:06:29 46° WSW 03:11:32 10° S night (unlit)
02 Feb - 17:46:36 10° SSW 17:50:48 49° ESE 17:55:02 10° NE visible
02 Feb - 19:30:23 10° W 19:34:09 28° NW 19:38:01 10° NNE visible
02 Feb - 21:17:36 10° NNW 21:18:51 11° NNW 21:20:08 10° N visible
02 Feb - 23:02:47 10° N 23:04:12 11° NNE 23:05:38 10° NNE night (unlit)
03 Feb - 00:44:52 10° NNW 00:48:56 28° NE 00:53:15 10° E night (unlit)
03 Feb - 02:27:39 10° NW 02:32:25 65° WSW 02:37:39 10° SSE night (unlit)
03 Feb - 04:13:45 10° W 04:14:49 11° WSW 04:15:52 10° WSW night (unlit)
03 Feb - 17:12:52 10° S 17:16:47 33° ESE 17:20:44 10° NE daylight
03 Feb - 18:55:49 10° WSW 18:59:52 37° NW 19:04:00 10° NNE visible
03 Feb - 20:42:26 10° NW 20:44:20 12° NNW 20:46:16 10° N visible
03 Feb - 22:29:02 10° N 22:29:39 10° N 22:30:16 10° NNE night (unlit)
04 Feb - 00:10:54 10° NNW 00:14:35 22° NE 00:18:30 10° E night (unlit)
04 Feb - 01:53:29 10° NW 01:58:18 89° WSW 02:03:36 10° SE night (unlit)
04 Feb - 03:37:59 10° WNW 03:40:55 16° WSW 03:43:59 10° SW night (unlit)
04 Feb - 16:39:22 10° SSE 16:42:49 23° ESE 16:46:15 10° ENE daylight
04 Feb - 18:21:23 10° SW 18:25:37 51° NW 18:29:57 10° NNE visible
04 Feb - 20:07:23 10° WNW 20:09:51 15° NNW 20:12:21 10° N visible
04 Feb - 23:36:55 10° NNW 23:40:11 18° NNE 23:43:38 10° ENE night (unlit)
